KMYFKSMO

Guest
Details From KMYF - Montgomery Fld
To KSMO - Santa Monica Muni
Flight Number -
Tags Generated
Created
Modified
Stats Distance 97 nm / 180 km
Max Altitude 0 ft / 0 m
Waypoints 2
Social Downloads 0
Likes 0
Share VATSIM

Download

Looking for another format? Having issues loading an existing format? Contact us
Advertisement - Login to hide

Notes

Generated

Route

KMYF KSMO

ID Type Via Altitude Latitude Longitude Leg Dist Tot Dist Heading (true) Name
O KMYF APT - 0 ft / 0 m 32.81690˚ -117.14531˚ - 0 nm - -
O KSMO APT - 0 ft / 0 m 34.01098˚ -118.45709˚ 97 nm 97 nm 318° / 317° -

Altitude Profile

Advertisement - Login to hide

KMYF

Details ICAO KMYF
Name Montgomery Fld
Region United States
Timezone America/Los_Angeles (UTC-8.0)
Stats Elevation 427 ft / 130 m (AMSL)
Location 32.815737° -117.139705°
Runways 3
Magnetic Variation 11.529° E

METAR

KMYF 161953Z 20010KT 9SM BKN026 BKN040 19/11 A2971 RMK AO2 SLP059 T01890106

Decode

TAF

Not found

Departure Runways

ID Width Length Bearing (true) Bearing (mag) Surface Threshold Offset Overrun Length
05 151 ft / 46 m 3,403 ft / 1,037 m 64.89° 53.36° Asphalt 390 ft / 119 m 0 ft / 0 m
10L 151 ft / 46 m 4,581 ft / 1,396 m 115.10° 103.57° Asphalt 0 ft / 0 m 0 ft / 0 m
10R 59 ft / 18 m 3,404 ft / 1,038 m 115.00° 103.47° Asphalt 0 ft / 0 m 0 ft / 0 m
23 151 ft / 46 m 3,403 ft / 1,037 m 244.89° 233.36° Asphalt 0 ft / 0 m 0 ft / 0 m
28L 59 ft / 18 m 3,404 ft / 1,038 m 295.00° 283.47° Asphalt 0 ft / 0 m 0 ft / 0 m
28R 151 ft / 46 m 4,581 ft / 1,396 m 295.10° 283.57° Asphalt 1,175 ft / 358 m 0 ft / 0 m

KSMO

Details ICAO KSMO (SMO)
Name SANTA MONICA MUNI
Region United States
Timezone America/Los_Angeles (UTC-8.0)
Stats Elevation 177 ft / 54 m (AMSL)
Location 34.015847° -118.451329°
Runways 1
Magnetic Variation 12.029° E

METAR

KSMO 161951Z AUTO VRB03KT 10SM CLR 19/08 A2969 RMK AO2 SLP054 T01940078

Decode

TAF

TAF KSMO 161739Z 1618/1718 04006KT P6SM SCT025 WS010/01035KT FM161900 24008KT P6SM SKC FM170400 36009KT P6SM SKC FM170900 02007KT P6SM SKC WS010/03035KT

Decode

Destination Runways

ID Width Length Bearing (true) Bearing (mag) Surface Threshold Offset Overrun Length
03 151 ft / 46 m 4,978 ft / 1,517 m 44.45° 32.42° Asphalt 0 ft / 0 m 0 ft / 0 m
21 151 ft / 46 m 4,978 ft / 1,517 m 224.46° 212.43° Asphalt 0 ft / 0 m 0 ft / 0 m

Popular Alternatives